    Observer details:
    113 Volkssternwarte Drebach, Schoenbrunn.  Observer A. Knoefel.  0.5-m f/4.6
        reflector + CCD.
    204 Schiaparelli Observatory.  Observer L. Buzzi.  0.38-m f/6.8 reflector
        + CCD.
    291 LPL/Spacewatch II.  Observer T. H. Bressi.  1.8-m f/2.7 reflector + CCD.
    300 Bisei Spaceguard Center--BATTeRS.  Observers K. Nishiyama, T. Sakamoto.
        1.0-m f/3.0 reflector + CCD.
    470 Ceccano.  Observers G. Masi, F. Nocentini.  Measurers G. Masi, U. Masi.
        0.36-m f/8.7 reflector + CCD.
    691 Steward Observatory, Kitt Peak.  Observer T. H. Bressi.  0.9-m f/3
        reflector + CCD.
    704 Lincoln Laboratory ETS, New Mexico.  Observers M. Blythe, G. Spitz,
        R. Brungard, J. Paige, P. Festler, T. McVey, A. Valdivia, C. Gall.  1.0-m
        f/2.15 reflector + CCD.
    958 Observatoire de Dax.  Observers P. Dupouy, J. B. de Vanssay.  Measurer
        P. Dupouy.  0.43-m f/3.5 reflector + CCD.
    B96 Brixiis Observatory, Kruibeke.  Observer E. Bryssinck.  0.4-m f/3.8
        astrograph + CCD.
    C23 Olmen.  Observer A. Diepvens.  0.20-m f/9 refractor + CCD.
    F65 Haleakala-Faulkes Telescope North.  Observers P. Miller, P. Roche,
        A. Tripp, R. Miles, R. Holmes, S. Foglia, L. Buz.  Measurers L. Buzzi,
        S. Foglia, T. Vorobjov.  2.0-m f/10 Ritchey-Chretien + CCD.
    G96 Mt. Lemmon Survey.  Observer J. A. Johnson.  Measurers A. Boattini,
        E. J. Christensen, A. R. Gibbs, A. D. Grauer, R. E. Hill, R. A. Kowalski,
        S. M. Larson, R. H. McNaught.  1.5-m reflector + CCD.
    H01 Magdalena Ridge Observatory, Socorro.  Observer W. H. Ryan.  2.4-m f/8.9
        reflector + CCD.
    H06 RAS Observatory, Mayhill.  Observers H. Sato, R. Ligustri, E. Guido,
        G. Sostero, N. Howes.  0.25-m f/3.3 reflector + CCD, 0.43-m f/6.8
        astrograph + CCD + f/4.5 focal reducer, 0.51-m f/6.8 astrograph + CCD
        + f/4.5 focal reducer.
    H17 Angel Peaks Observatory.  Observer J. Hall.  0.35-m f/10
        Schmidt-Cassegrain + CCD.
    H21 Astronomical Research Observatory, Westfield.  Observer R. Holmes.
        Measurers L. Buzzi, H. Devore, S. Foglia, T. Vorobjov.  0.61-m f/4.0
        astrograph + CCD.
    H36 Sandlot Observatory, Scranton.  Observer G. Hug.  0.56-m reflector + CCD.
    J04 ESA Optical Ground Station, Tenerife.  Observer P. Ruiz.  Measurers
        A. Knoefel, D. Koschny, M. Busch.  1.0-m f/4.4 reflector + CCD.
    
    Orbital elements:
        C/2012 T5 (Bressi)
    T 2013 Feb. 23.55837 TT                                 MPC
    q   0.3198913            (2000.0)            P               Q
                       Peri.  318.27381     -0.63406825     -0.24350976
                       Node   230.55777     -0.15649561     -0.88907314
    e   1.0            Incl.   71.87241     -0.75727576     +0.38762346
    From 78 observations 2012 Oct. 14-18.
    
    Ephemeris:
        C/2012 T5 (Bressi)
    Date    TT    R. A. (2000) Decl.     Delta      r     Elong.  Phase   m1    m2
    2012 09 18    04 25 36.2 +25 17 16   2.4885  2.9371   106.5    19.1  19.7
    ...
    2012 10 03    04 24 04.0 +23 47 18   2.0695  2.7329   121.8    18.1  18.9
    ...
    2012 10 11    04 20 03.2 +22 35 12   1.8571  2.6213   130.9    16.7  18.5
    ...
    2012 10 17    04 15 10.7 +21 25 47   1.7053  2.5362   138.1    15.2  18.2
    2012 10 18    04 14 11.5 +21 12 41   1.6808  2.5219   139.4    14.9  18.1
    2012 10 19    04 13 09.1 +20 59 07   1.6565  2.5075   140.6    14.6  18.1
    ...
    2012 10 25    04 05 45.2 +19 26 46   1.5161  2.4208   148.6    12.4  17.7
    ...
    2012 11 02    03 52 30.9 +16 49 24   1.3457  2.3030   159.9     8.5  17.3
    ...
    2012 11 17    03 16 24.9 +09 42 14   1.0940  2.0751   170.2     4.7  16.4
    
    Gareth V. Williams           (C) Copyright 2012 MPC           M.P.E.C. 2012-U38
    

    Read MPEC 2012-U37 Read MPEC 2012-U39


    MPEC number:

    Enter an MPEC number in one of the following forms:

    • 1997-B01 (the full form)
    • J97B01 (the packed version of the full form)
    • B01 (the abbreviated form)